COSMOS 1823 DEB

Satellite information

Favourite Embed

Satellite Type and Status

DEBRISIN ORBIT

Key statistics

Satellite COSMOS 1823 DEB at a glance.

Uptime

14137

Days in orbit

Revolutions

≈ 12.6

Per day

Orbit

LEO

Low Earth Orbit

Inclination

73.5

Latest

Satellite identification and parameters

Extended collection of information and parameters for COSMOS 1823 DEB.

Object identification

Identified? True

Debris? True

Object name: COSMOS 1823 DEB

International designator: 1987-020V

Object number (NORAD): 18742

Object ID (CCSDS): 18742

Country: COMMONWEALTH OF INDEPENDENT STATES (CIS)

Current information (Y/N): Y

RCS size: SMALL

Orbital parameters

Period: 114.365 minutes

Inclination: 73.5167 deg

SMA: 7804.692 km

Apoapsis: 1460.765 km

Periapsis: 1392.349 km

RAAN: 175.3712 deg

Eccentricy: 0.00438301

Argument of periapsis: 121.6442 deg

Mean anomaly: 355.1024 deg

Mean motion: 12.59125772 rev/day

Mean motion (dot): -0.00000612 rev/day2

B* drag term: -0.0034519078 1/REarth

Two-line elements (TLE)

Creation date: Nov. 2, 2025, 5:34 p.m.

Reference frame: TEME

Reference center: EARTH

Epoch: Nov. 2, 2025, 12:08 a.m. UTC

TLE line 0: 0 COSMOS 1823 DEB

TLE line 1: 1 18742U 87020V 25306.00562894 -.00000612 00000-0 -34519-2 0 9994

TLE line 2: 2 18742 73.5167 175.3712 0043830 121.6442 355.1024 12.59125772733236

Live tracking on map

Real-time ground track for satellite COSMOS 1823 DEB.

In-orbit conjunctions

A list of the most updated potential collisions computed for object COSMOS 1823 DEB.

Target Orbit TCA Probability of collision Miss distance Type
COSMOS 2416 LEO 2025-05-22 14:04:47 0.0006554354 168.0 (m) PAYLOAD
DELTA 1 DEB SSO 2024-12-21 09:39:13 0.0001300908 23.0 (m) DEBRIS

Associated space launch

A satellite for the GEO-IK geodetic system

COSMOS 1823 DEB was lifted into orbit during the mission ‘Tsiklon-3 | Geo-IK 9’, on board a Tsiklon-3 space rocket.

The launch took place on Feb. 20, 1987, 4:43 a.m. from 32/2.

For more information about the launch, click the button.

Launch to space Tsiklon-3 | Geo-IK 9
Tsiklon-3 | Geo-IK 9

Agency: N/A

Status: Launch Successful

Launch date: Feb. 20, 1987, 4:43 a.m. UTC

Rocket: Tsiklon-3

Launch pad: 32/2

Location: Plesetsk Cosmodrome, Russian Federation

...

Latest news about this satellite

There are no fresh news available about this satellite. Check back as we update our databases every day.


Newsletter sign-up

Weekly statistics, charts and insights to help you stay on top of the space industry.